This is the latest recevied weather packets stored in our database for station/object AA7F. If no packets are shown the sender has not sent any weather packets the latest 10 day(s).
| Time | Temp. | Humidity | Pressure | Rain* | Wind** | Luminosity | Snow |
|---|---|---|---|---|---|---|---|
| 1777748588 | 22.22° C | 45% | 1014.8 hPa | 0 mm | - | 672 W/m² | - |
| 1777746460 | 21.11° C | 47% | 1015 hPa | 0 mm | - | 661 W/m² | - |
| 1777744646 | 20° C | 51% | 1015.3 hPa | 0 mm | - | 701 W/m² | - |
| 1777742219 | 17.22° C | 53% | 1015.3 hPa | 0 mm | - | 637 W/m² | - |
| 1777741916 | 17.22° C | 52% | 1015.4 hPa | 0 mm | - | 650 W/m² | - |
| 1777741613 | 16.67° C | 55% | 1015.5 hPa | 0 mm | - | 629 W/m² | - |
| 1777741006 | 17.22° C | 56% | 1015.3 hPa | 0 mm | - | 624 W/m² | - |
| 1777740399 | 16.67° C | 57% | 1015.5 hPa | 0 mm | - | 610 W/m² | - |
| 1777739792 | 16.11° C | 58% | 1015.5 hPa | 0 mm | - | 592 W/m² | - |
| 1777739489 | 15.56° C | 58% | 1015.7 hPa | 0 mm | - | 591 W/m² | - |
| 1777739186 | 15.56° C | 59% | 1015.6 hPa | 0 mm | - | 582 W/m² | - |
| 1777738883 | 15° C | 61% | 1015.6 hPa | 0 mm | - | 526 W/m² | - |
| 1777738580 | 15° C | 62% | 1015.7 hPa | 0 mm | - | 542 W/m² | - |
| 1777738277 | 14.44° C | 62% | 1015.5 hPa | 0 mm | - | 498 W/m² | - |
| 1777737975 | 14.44° C | 64% | 1015.8 hPa | 0 mm | - | 480 W/m² | - |
| 1777737372 | 14.44° C | 64% | 1015.9 hPa | 0 mm | - | 442 W/m² | - |
| 1777737069 | 14.44° C | 67% | 1015.8 hPa | 0 mm | - | 398 W/m² | - |
| 1777736764 | 13.89° C | 67% | 1015.8 hPa | 0 mm | - | 359 W/m² | - |
| 1777736136 | 13.33° C | 68% | 1016.1 hPa | 0 mm | - | 360 W/m² | - |
| 1777735834 | 12.78° C | 68% | 1015.8 hPa | 0 mm | - | 322 W/m² | - |
| 1777735531 | 12.22° C | 71% | 1016 hPa | 0 mm | - | 295 W/m² | - |
| 1777735228 | 11.67° C | 72% | 1016.3 hPa | 0 mm | - | 157 W/m² | - |
| 1777734925 | 11.11° C | 73% | 1015.9 hPa | 0 mm | - | 159 W/m² | - |
| 1777734622 | 11.11° C | 73% | 1016.1 hPa | 0 mm | - | 121 W/m² | - |
| 1777734320 | 11.67° C | 72% | 1016 hPa | 0 mm | - | 162 W/m² | - |
* Rain latest hour (hover to see other rain measurements)
** Current wind speed in m/s (hover to see current wind gust speed)